Starlink 30119

operational
NORAD ID: 56823 Int'l Des: 2023-079 Owner: SPXS Country: US Constellation: starlink
LEOCIRCULAR

关于 Starlink 30119

正在加载描述...

实时位置

正在加载3D地球...

即将过境

高度历史

Altitude vs Time

uPlot chart will show altitude changes over time

两行轨道根数

1 56823U 23079A 26094.95077307 -.00002068 00000-0 -67449-4 0 9996
2 56823 43.0051 318.8256 0001904 268.3997 91.6636 15.26730253157334
Epoch: Apr 4, 2026 • Age: 22 hours

当前状态

高度 488.2 km
速度 7.62 km/s
星下点 -16.18°S, 151.06°E
发射日期 Jun 4, 2023
运行时间 2.8 years
类型 internet

技术详情

分类 Payload
质量 730.00 kg
干质量 700.00 kg
总质量 730.00 kg
长度 0.30 m
直径 4.10 m
跨度 29.00 m
形状 Box + pan
制造商 SPXS
平台类型 Starlink V2M
阶段状态 In Orbit
所有者/国家 SPXS/US

大型星座

Loading constellations...